Regional Weather Roundup
Issued by NWS

Home | Current Version | Previous Version | Text Only | Print | Product List | Glossary On
Versions: 1 2 3 4 5 6 7 8 9 10 11 12 13 14 15 16 17 18 19 20 21 22 23 24 25 26 27 28 29 30 31 32 33 34 35 36 37 38 39 40 41 42 43 44 45 46 47 48 49 50
000
ASUS46 KSEW 271410
RWRWA

WASHINGTON REGIONAL WEATHER ROUNDUP
NATIONAL WEATHER SERVICE SEATTLE WA
700 AM PDT WED MAY 27 2015

NOTE:"FAIR" INDICATES FEW OR NO CLOUDS BELOW 12,000 FEET WITH NO
SIGNIFICANT WEATHER AND/OR OBSTRUCTIONS TO VISIBILITY.

WAZ505-507>509-271500-
SEATTLE, TACOMA, EVERETT, AND VICINITY

CITY           SKY/WX    TMP DP  RH WIND       PRES   REMARKS
EVERETT        CLOUDY    54  52  93 VRB3      30.07R
BOEING FIELD   PTSUNNY   59  52  77 CALM      30.06S
RENTON         MOSUNNY   56  51  84 CALM      30.06S
SEATAC AIRPORT PTSUNNY   56  52  86 SW3       30.07R
JBLM-MCCHORD   CLOUDY    51  51 100 W6        30.07R
PUYALLUP       FAIR      52  52 100 CALM      30.07R
BREMERTON      CLOUDY    52  52 100 SW3       30.09R
JBLM-FT LEWIS  PTSUNNY   52  52  99 NW3       30.07R
TACOMA NARROWS CLOUDY    52  50  93 W3        30.08R
$$

WAZ001-503-506-510-514-515-271500-
NORTH INTERIOR

CITY           SKY/WX    TMP DP  RH WIND       PRES   REMARKS
BELLINGHAM     CLOUDY    55  52  89 S6        30.06S
FRIDAY HARBOR  FOG       50  50 100 CALM      30.08R VSB<1/4
EASTSOUND      PTSUNNY   54  50  87 CALM      30.05R
PORT ANGELES   FOG       51  50  96 W5        30.08R VSB 1/2
PORT TOWNSEND  CLOUDY    54  52  94 NW5       30.07S
NAS WHIDBEY    FOG       53  51  93 W6        30.12R VSB 1
ARLINGTON      CLOUDY    54  48  82 NW5       30.08R
BURLINGTON     CLOUDY    52  52 100 CALM      30.08R
$$

WAZ020-022-039-040-504-511-512-271500-
SOUTHWEST INTERIOR

CITY           SKY/WX    TMP DP  RH WIND       PRES   REMARKS
SHELTON        CLOUDY    50  49  96 W8        30.06R FOG
OLYMPIA        FOG       50  49  96 CALM      30.08R VSB 1/2
CHEHALIS       CLOUDY    52  52 100 NW3       30.08S FOG
KELSO          CLOUDY    55  48  76 CALM      30.11S
VANCOUVER      CLOUDY    55  51  86 VRB5      30.06R
SCAPPOOSE, OR  CLOUDY    56  50  80 VRB3      30.06R
PORTLAND, OR   CLOUDY    56  53  90 CALM      30.07R
$$

WAZ021-516-517-271500-
WASHINGTON COAST

CITY           SKY/WX    TMP DP  RH WIND       PRES   REMARKS
FORKS          CLOUDY    51  51 100 CALM      30.08S FOG
HOQUIAM        CLOUDY    52  50  93 VRB3      30.09S FOG
ASTORIA, OR    CLOUDY    53  51  93 SW5       30.09R FOG
$$

WAZ019-023-024-040-518-519-271500-
CASCADE MOUNTAINS AND COLUMBIA GORGE

CITY           SKY/WX    TMP DP  RH WIND       PRES   REMARKS
TROUTDALE, OR  CLOUDY    56  52  86 CALM      30.05S
THE DALLES, OR SUNNY     58  48  69 CALM      30.02R
$$

WAZ026-027-041>044-520-521-271500-
EAST SLOPES

CITY           SKY/WX    TMP DP  RH WIND       PRES   REMARKS
OMAK           SUNNY     56  49  77 N3        30.02R
WENATCHEE      SUNNY     61  48  62 W5        30.01R
ELLENSBURG     SUNNY     55  47  74 E3        30.03R
YAKIMA         MOSUNNY   62  46  55 NW6       30.02S
$$

WAZ028-034-035-271500-
COLUMBIA BASIN

CITY           SKY/WX    TMP DP  RH WIND       PRES   REMARKS
EPHRATA        SUNNY     56  51  84 CALM      30.00R
MOSES LAKE     SUNNY     54  49  83 CALM      30.00S
PASCO          CLOUDY    60  54  80 SE3       30.00S
HERMISTON, OR  CLOUDY    57  51  80 CALM      30.01R
$$

WAZ036>038-271500-
NORTHEAST WASHINGTON

CITY           SKY/WX    TMP DP  RH WIND       PRES   REMARKS
SPOKANE GEIGER MOSUNNY   53  49  86 CALM      30.02R
SPOKANE FELTS  MOSUNNY   52  49  89 CALM      30.03R
FAIRCHILD AFB  SUNNY     52  51  97 E2        30.01S
COEURDALENE,ID MOSUNNY   48  45  87 NE3       30.02S
DEER PARK      MOSUNNY   54  50  86 CALM      30.03R
$$

WAZ029>033-271500-
SOUTHEAST WASHINGTON

CITY           SKY/WX    TMP DP  RH WIND       PRES   REMARKS
PULLMAN        MOSUNNY   47  44  90 CALM      30.03S
LEWISTON, ID   SUNNY     56  50  80 CALM      30.01S
WALLA WALLA    PTSUNNY   60  49  66 S7        30.01R
PENDLETON, OR  CLOUDY    53  49  86 E5        30.02R
$$



USA.gov is the U.S. government's official web portal to all federal, state and local government web resources and services.